TimePST,TemperatureF,Dew PointF,Humidity,Sea Level PressureIn,VisibilityMPH,Wind Direction,Wind SpeedMPH,Gust SpeedMPH,PrecipitationIn,Events,Conditions,WindDirDegrees,DateUTC
12:53 AM,55.0,37.0,51,29.52,10.0,South,12.7,23.0,N/A,,Mostly Cloudy,180,2012-12-01 08:53:00
1:53 AM,55.9,37.0,49,29.53,10.0,South,15.0,19.6,N/A,,Clear,170,2012-12-01 09:53:00
2:53 AM,55.0,36.0,49,29.53,10.0,South,13.8,-,N/A,,Partly Cloudy,170,2012-12-01 10:53:00
3:53 AM,55.4,35.6,47,29.55,10.0,South,12.7,-,N/A,,Overcast,180,2012-12-01 11:53:00
4:53 AM,51.1,37.9,61,29.57,10.0,West,5.8,-,N/A,,Overcast,270,2012-12-01 12:53:00
5:53 AM,50.0,39.9,68,29.60,10.0,WSW,24.2,35.7,N/A,,Overcast,250,2012-12-01 13:53:00
6:53 AM,53.6,39.2,58,29.63,10.0,SSW,21.9,36.8,N/A,,Overcast,210,2012-12-01 14:53:00
7:53 AM,50.0,39.9,68,29.65,10.0,SW,12.7,-,N/A,,Overcast,230,2012-12-01 15:53:00
8:53 AM,50.0,37.9,63,29.69,10.0,West,19.6,26.5,N/A,,Mostly Cloudy,260,2012-12-01 16:53:00
9:53 AM,48.0,39.9,74,29.73,10.0,WNW,11.5,-,N/A,,Mostly Cloudy,290,2012-12-01 17:53:00
10:53 AM,50.0,41.0,71,29.76,10.0,NW,12.7,-,N/A,,Scattered Clouds,310,2012-12-01 18:53:00
11:53 AM,52.0,39.0,61,29.72,10.0,West,12.7,-,N/A,,Clear,270,2012-12-01 19:53:00
12:53 PM,52.0,39.9,63,29.71,10.0,NNE,3.5,-,N/A,,Mostly Cloudy,20,2012-12-01 20:53:00
1:53 PM,52.0,39.9,63,29.68,10.0,East,3.5,-,N/A,,Mostly Cloudy,100,2012-12-01 21:53:00
2:53 PM,51.1,42.1,71,29.65,10.0,ENE,6.9,-,N/A,,Overcast,60,2012-12-01 22:53:00
3:53 PM,48.9,41.0,74,29.66,10.0,NE,8.1,-,N/A,,Overcast,50,2012-12-01 23:53:00
4:53 PM,51.1,39.0,63,29.64,10.0,Calm,Calm,-,0.00,Rain,Light Rain,0,2012-12-02 00:53:00
5:53 PM,46.9,42.1,83,29.64,7.0,North,5.8,-,0.02,Rain,Light Rain,360,2012-12-02 01:53:00
6:53 PM,45.0,43.0,93,29.63,5.0,ENE,8.1,-,0.07,Rain,Light Rain,60,2012-12-02 02:53:00
7:53 PM,45.0,43.0,93,29.60,10.0,East,10.4,-,0.01,Rain,Light Rain,90,2012-12-02 03:53:00
8:53 PM,45.0,44.1,97,29.58,6.0,NE,4.6,-,0.08,Rain,Light Rain,40,2012-12-02 04:53:00
9:53 PM,45.0,44.1,97,29.52,10.0,East,12.7,-,0.03,,Scattered Clouds,90,2012-12-02 05:53:00
10:53 PM,45.0,44.1,97,29.50,4.0,ENE,9.2,-,0.04,Rain,Rain,60,2012-12-02 06:53:00
11:53 PM,45.0,44.1,97,29.43,6.0,East,10.4,-,0.10,Rain,Light Rain,80,2012-12-02 07:53:00